HYPE145 FACT-FACT

Flight info

Callsign HYPE145
Flight time 0h 5m
Altitude 1000
Route FACT EMS OPERATIONS FACT
Aircraft EC45/L-SDE3GHIJ1RWY/L

Departure

Time 2026-05-07 10:22
Airport Cape Town International Airport (FACT)

Arrival

Time 2026-05-07 10:28
Airport Cape Town International Airport (FACT)
Time Latitude Longitude Altitude Speed Heading
2026-05-07 10:19 -33.97787 18.59526 161 ft 0 kts 247°
2026-05-07 10:20 -33.97856 18.59264 292 ft 80 kts 242°
2026-05-07 10:20 -33.98139 18.58427 254 ft 125 kts 234°
2026-05-07 10:20 -33.98505 18.57422 235 ft 132 kts 240°
2026-05-07 10:20 -33.98618 18.56340 309 ft 127 kts 255°
2026-05-07 10:21 -33.98645 18.55265 346 ft 130 kts 256°
2026-05-07 10:21 -33.98566 18.54180 370 ft 127 kts 266°
2026-05-07 10:21 -33.98432 18.53126 369 ft 131 kts 272°
2026-05-07 10:21 -33.98147 18.52146 417 ft 121 kts 278°
2026-05-07 10:22 -33.97839 18.51189 527 ft 123 kts 279°
2026-05-07 10:22 -33.97533 18.50252 613 ft 122 kts 278°
2026-05-07 10:22 -33.97218 18.49300 702 ft 124 kts 282°
2026-05-07 10:22 -33.96687 18.48476 777 ft 124 kts 305°
2026-05-07 10:23 -33.96012 18.47854 803 ft 121 kts 311°
2026-05-07 10:23 -33.95321 18.47266 815 ft 122 kts 311°
2026-05-07 10:23 -33.94627 18.46678 822 ft 122 kts 311°
2026-05-07 10:23 -33.93930 18.46089 826 ft 122 kts 311°
2026-05-07 10:24 -33.93234 18.45500 828 ft 123 kts 311°
2026-05-07 10:24 -33.92537 18.44910 829 ft 123 kts 311°
2026-05-07 10:24 -33.91839 18.44320 851 ft 123 kts 312°
2026-05-07 10:24 -33.91129 18.43756 936 ft 128 kts 322°
2026-05-07 10:25 -33.90241 18.43629 987 ft 128 kts 357°
2026-05-07 10:25 -33.89473 18.44109 993 ft 128 kts 31°
2026-05-07 10:25 -33.89052 18.45037 1001 ft 128 kts 65°
2026-05-07 10:25 -33.89137 18.46086 1005 ft 128 kts 100°
2026-05-07 10:26 -33.89695 18.46889 1008 ft 126 kts 135°
2026-05-07 10:26 -33.90523 18.47168 1009 ft 125 kts 169°
2026-05-07 10:26 -33.91328 18.46830 1010 ft 123 kts 204°
2026-05-07 10:26 -33.91818 18.46006 1010 ft 123 kts 239°
2026-05-07 10:27 -33.91823 18.44995 1004 ft 125 kts 274°
2026-05-07 10:27 -33.91697 18.43998 1030 ft 118 kts 250°
2026-05-07 10:27 -33.92090 18.43093 1119 ft 129 kts 224°
2026-05-07 10:27 -33.92312 18.42100 1345 ft 124 kts 261°
2026-05-07 10:28 -33.92318 18.41274 1446 ft 68 kts 204°
2026-05-07 10:28 -33.92430 18.41274 1201 ft 42 kts 335°
2026-05-07 10:28 -33.92118 18.41417 894 ft 47 kts 342°
2026-05-07 10:28 -33.91829 18.41316 676 ft 39 kts 313°
2026-05-07 10:29 -33.91716 18.41246 584 ft 3 kts 324°
2026-05-07 10:29 -33.91703 18.41264 580 ft 9 kts 325°
2026-05-07 10:29 -33.91637 18.41244 569 ft 9 kts 327°
2026-05-07 10:30 -33.91539 18.41197 557 ft 5 kts 304°
2026-05-07 10:30 -33.91521 18.41172 555 ft 2 kts 300°
2026-05-07 10:30 -33.91517 18.41165 550 ft 0 kts 296°
2026-05-07 10:30 -33.91517 18.41166 550 ft 0 kts 296°